Regional Weather Roundup
Issued by NWS

Home | Current Version | Previous Version | Graphics & Text | Print | Product List | Glossary On
Versions: 1 2 3 4 5 6 7 8 9 10 11 12 13 14 15 16 17 18 19 20 21 22 23 24 25 26 27 28 29 30 31 32 33 34 35 36 37 38 39 40 41 42 43 44 45 46 47 48 49 50
000
ASUS43 KBIS 261510
RWRND

NORTH DAKOTA REGIONAL WEATHER ROUNDUP
NATIONAL WEATHER SERVICE BISMARCK ND
900 AM CST MON JAN 26 2015

NOTE: "FAIR" INDICATES FEW OR NO CLOUDS BELOW 12,000 FEET WITH NO
SIGNIFICANT WEATHER AND/OR OBSTRUCTIONS TO VISIBILITY.


NDZ001>003-009>011-017-261600-
NORTHWEST NORTH DAKOTA

CITY           SKY/WX    TMP DP  RH WIND       PRES   REMARKS
WILLISTON      CLEAR     34  29  82 W8        29.96R
MINOT          CLEAR     37  29  72 W16       29.87R
MINOT AFB      CLEAR     35  34  98 NW12      29.87R
$$

NDZ018>021-031>035-040>046-261600-
SOUTHWEST NORTH DAKOTA

CITY           SKY/WX    TMP DP  RH WIND       PRES   REMARKS
BISMARCK       CLEAR     38  32  79 NW8       29.90R
DICKINSON      CLEAR     35  31  85 W12       29.94R
GARRISON         N/A     37  31  78 NW10      29.89R
HETTINGER ARPT CLEAR     35  30  82 NW12      29.98R
$$

NDZ004>008-012>016-024-026-027-054-261600-
NORTHEAST NORTH DAKOTA

CITY           SKY/WX    TMP DP  RH WIND       PRES   REMARKS
GRAND FORKS    MOCLDY    37  30  75 NW20G26   29.71R
GRND FRKS AFB  PTCLDY    38  30  73 NW18G26   29.73R
DEVILS LAKE    CLEAR     34  28  80 NW17      29.77R
$$

NDZ022-023-025-028>030-036>039-047>053-261600-
SOUTHEAST NORTH DAKOTA

CITY           SKY/WX    TMP DP  RH WIND       PRES   REMARKS
FARGO          CLEAR     37  30  75 W14       29.72R
JAMESTOWN      CLEAR     36  30  79 NW16      29.80R
$$




USA.gov is the U.S. government's official web portal to all federal, state and local government web resources and services.